Etusivu
METAR-TAF:

METAR-TAF

Lentoasemat :

Nueces County Airport

Robstown, Texas, Yhdysvallat

Leveyspiiri: 27-46-42N, Pituuspiiri: 097-41-25W, korkeus merenpinnasta: 24 m

Tämänhetkinen sää

Tämä raportti tehtiin 34 minuuttia sitten, kello 22.35 UTC
Tuuli 9 kn idästä
Lämpötila 19°C
Kosteus 28%
Ilmanpaine 1020 hPa
Näkyvyys: 16.1 km
Hajanaisia pilviä 9000 ft:n korkeudessa

METAR: KRBO 242235Z AUTO 10009KT 10SM SCT090 19/00 A3012 RMK AO2 T01891001

Aika: 17:09 (23:09 UTC)


TAF: puuttuu

Säähavainnot ja -ennusteet yli 4000 lentoasemalta (METAR- ja TAF-raportit).

Käytössä olevat sääasemat on merkitty karttaan keltaisilla ja punaisilla pisteillä.

Aseta hiiri pisteen päälle nähdäksesi sääaseman nimen.

Klikkaa sitten nähdäksesi säähavainnot ja -ennusteet.

Kartan vaihtaminen: klikkaa mustalla rastilla varustettuja vihreitä pisteitä, niin voit zoomata sisään; viivalla varustettua vihreää pistettä, niin voit zoomata ulos tai vihreitä nuolia, niin pääset viereisille kartoille.


METAR-TAF: